Back to catalog

FENGYUN 1C DEB

AlivePO
NORAD 30177·DEBRIS·🇨🇳 China

Launched May 10, 1999 from Taiyuan Satellite Launch Center

Loading…

Next Passes (next 24 hours)

TLE

FreshSource: Space-Track

Epoch: Sep 14, 2026, 05:27 UTC

1 30177U 99025UJ  26257.22771519  .00000769  00000-0  51681-3 0  9995
2 30177  98.6352 175.8350 0446424 132.1903  22.8683 13.63526282972167

Track FENGYUN 1C DEB in real time with AllMySat

Download on the App Store